[[{"header":{"parameterUnit":"m.s-1","parameterCategory":1,"la1":30.2991,"la2":30.254,"lo1":-89.0895,"lo2":-89.0444,"dy":0.0017,"dx":0.0017,"nx":28,"ny":28,"refTime":"2023-09-04T09:00:00:Z","depth":0,"parameterNumber":2,"parameterNumberName":"U-component_of_WINDS"},"data":[0,0,0,0,0,0,0,0,0,0,0,0,0,0,0,0,0,0,0,0,0,0,0,0,0,0,0,0,0,0,0,0,0,0,0,0,0,0,0,0,0,0,0,0,0,0,0,0,0,0,0,0,0,0,0,0,0,0,-3.9089,-3.9088,0,-3.8994,-3.8993,-3.8992,-3.8891,-3.889,-3.8888,-3.8887,-3.8792,-3.8791,-3.879,0,0,0,0,0,0,0,0,0,0,0,0,0,-3.9187,-3.9186,-3.9089,-3.9088,-3.9087,-3.8995,-3.8993,-3.8992,-3.8891,-3.889,-3.8888,-3.8886,-3.8792,-3.8791,-3.879,0,0,0,0,0,0,0,0,0,0,0,0,0,-3.9124,-3.9185,-3.909,-3.9026,-3.9019,-3.8995,-3.8993,-3.8992,-3.8892,-3.889,-3.8887,-3.8885,-3.8793,-3.8791,-3.8789,-3.8821,0,0,-3.8784,-3.8783,0,0,0,0,0,0,0,0,-3.9127,-3.912,-3.9036,-3.903,-3.9022,-3.8952,-3.8993,-3.8935,-3.8892,-3.894,-3.8887,-3.8884,-3.8847,-3.8841,-3.8828,-3.8817,-3.8813,-3.8784,-3.8783,-3.8782,-3.8781,0,0,0,0,0,0,0,-3.9132,-3.9124,-3.9052,-3.9035,-3.9027,-3.9003,-3.8991,-3.8981,-3.8907,-3.8936,-3.8928,-3.8918,-3.8843,-3.883,-3.8825,-3.8811,-3.8784,-3.8782,-3.8781,-3.878,-3.8823,-3.8825,0,0,0,0,0,0,-3.9146,-3.9128,-3.9055,-3.9049,-3.9071,-3.9003,-3.899,-3.8977,-3.8907,-3.8894,-3.892,-3.8914,-3.8834,-3.8827,-3.8821,-3.8852,-3.8782,-3.878,-3.8779,-3.882,-3.8823,-3.8826,0,0,0,0,0,0,-3.9148,-3.914,-3.9059,-3.9086,-3.9074,-3.9003,-3.899,-3.8976,-3.8963,-3.8895,-3.8882,-3.892,-3.8832,-3.8824,-3.8822,-3.8848,-3.8779,-3.8778,-3.8818,-3.8821,-3.8824,-3.8917,0,0,0,0,0,0,-3.9151,-3.9141,-3.9152,-3.9087,-3.9073,-3.906,-3.8991,-3.8976,-3.896,-3.8951,-3.8891,-3.8879,-3.883,-3.8825,-3.882,-3.8844,-3.8776,-3.8815,-3.8819,-3.8823,-3.8911,-3.8923,-3.8933,0,0,0,0,0,-3.9155,-3.9182,-3.9153,-3.9144,-3.9084,-3.9062,-3.9053,-3.8995,-3.8962,-3.8972,-3.8929,-3.8881,-3.8847,-3.8826,-3.8819,-3.8843,-3.8813,-3.8818,-3.8823,-3.8906,-3.8921,-3.8933,0,0,0,0,0,0,-3.9251,-3.9172,-3.9139,-3.9146,-3.9111,-3.9045,-3.9055,-3.9012,-3.8987,-3.8979,-3.8909,-3.8897,-3.8903,-3.8874,-3.8851,-3.8871,-3.8823,-3.8827,-3.8889,-3.8902,-3.8913,-3.8918,-3.8775,0,0,0,0,0,-3.9273,-3.926,-3.9193,-3.9205,-3.919,-3.9126,-3.9114,-3.9073,-3.9034,-3.9019,-3.8976,-3.8941,-3.8922,-3.8911,-3.8891,-3.8908,-3.8893,-3.8922,-3.8933,-3.8942,-3.8945,-3.8952,-3.8963,-3.8842,-3.8842,-3.8842,0,0,-3.9318,-3.9274,-3.927,-3.9224,-3.9192,-3.9181,-3.9114,-3.9105,-3.9096,-3.9018,-3.9012,-3.8981,-3.8937,-3.8945,-3.8947,-3.8921,-3.8977,-3.8949,-3.8957,-3.8954,-3.8958,-3.897,-3.898,-3.8845,-3.8844,-3.8844,0,0,-3.9393,-3.936,-3.9365,-3.9336,-3.9289,-3.9247,-3.9249,-3.9189,-3.9164,-3.9158,-3.9099,-3.9089,-3.9059,-3.903,-3.9012,-3.9081,-3.9035,-3.9077,-3.9132,-3.914,-3.9149,-3.9157,-3.918,-3.9189,-3.9081,-3.9081,-3.9082,0,-3.9455,-3.9435,-3.9374,-3.9369,-3.935,-3.928,-3.9286,-3.926,-3.921,-3.9199,-3.9172,-3.9132,-3.9099,-3.9098,-3.9115,-3.9104,-3.9104,-3.9081,-3.9153,-3.916,-3.9167,-3.9188,-3.9197,-3.9086,-3.9086,-3.9085,-3.9085,0,-3.9512,-3.95,-3.9511,-3.9462,-3.9446,-3.9447,-3.9387,-3.9378,-3.934,-3.9302,-3.9297,-3.9255,-3.9224,-3.9222,-3.9185,-3.9218,-3.9203,-3.9166,-3.9115,-3.9185,-3.9203,-3.921,-3.9094,-3.9092,-3.909,-3.9089,0,0,-3.964,-3.9561,-3.9566,-3.9543,-3.9488,-3.9478,-3.9477,-3.9446,-3.9439,-3.9409,-3.9405,-3.9383,-3.9348,-3.9328,-3.9287,-3.9295,-3.935,-3.9256,-3.9254,-3.9272,-3.9382,-3.9407,-3.9418,-3.9322,-3.9323,-3.9324,-3.9385,0,-3.9703,-3.9694,-3.9641,-3.9648,-3.9636,-3.9571,-3.957,-3.9537,-3.9502,-3.9488,-3.945,-3.9434,-3.9391,-3.9378,-3.9383,-3.9342,-3.937,-3.9338,-3.9317,-3.9317,-3.9325,-3.9427,-3.9454,-3.9513,-3.9392,-3.9393,-3.9394,0,-3.9774,-3.9747,-3.9752,-3.9698,-3.9691,-3.9691,-3.9659,-3.9647,-3.9609,-3.9583,-3.9562,-3.9517,-3.9513,-3.947,-3.9464,-3.9443,-3.9432,-3.9412,-3.9413,-3.9405,-3.9356,-3.9419,-3.953,-3.9538,-3.9405,-3.9404,-3.9403,0,-3.9864,-3.9829,-3.9828,-3.9811,-3.9749,-3.975,-3.9724,-3.9684,-3.967,-3.9644,-3.9634,-3.9608,-3.9593,-3.9575,-3.9525,-3.9499,-3.9524,-3.9477,-3.9502,-3.9503,-3.9506,-3.9506,-3.9614,-3.9507,-3.9507,-3.9507,-3.9506,0,-3.9937,-3.9943,-3.9867,-3.9866,-3.987,-3.9811,-3.9818,-3.9786,-3.9752,-3.9744,-3.9689,-3.9683,-3.9619,-3.9606,-3.9568,-3.9568,-3.9563,-3.9541,-3.953,-3.9544,-3.9546,-3.9532,-3.9526,-3.9509,-3.9508,-3.9508,-3.9507,0,-4.0036,-3.9986,-3.9979,-3.9922,-3.9908,-3.9913,-3.9864,-3.9861,-3.9825,-3.9816,-3.9811,-3.9754,-3.9736,-3.9685,-3.9656,-3.963,-3.964,-3.9622,-3.9652,-3.9644,-3.9671,-3.9668,-3.977,-3.978,-3.9671,-3.9672,-3.9673,0,-4.0084,-4.0086,-4.0029,-4.002,-3.9996,-3.9982,-3.9967,-3.9911,-3.9898,-3.9857,-3.9859,-3.9837,-3.9816,-3.9791,-3.9748,-3.9725,-3.9704,-3.9741,-3.9699,-3.9713,-3.97,-3.9699,-3.9699,-3.9749,-3.975,-3.9752,-3.9753,0,-4.0174,-4.0149,-4.0129,-4.0102,-4.0086,-4.0061,-4.0034,-4.003,-3.9967,-3.9956,-3.9937,-3.9921,-3.9891,-3.9869,-3.984,-3.9815,-3.9773,-3.9767,-3.9771,-3.9782,-3.9799,-3.9787,-3.9673,-3.9764,-3.9762,-3.9762,-3.9761,-3.9761,-4.0246,-4.0245,-4.0205,-4.0185,-4.0159,-4.0135,-4.0129,-4.0093,-4.0076,-4.0045,-4.0015,-3.9999,-3.9964,-3.992,-3.9898,-3.9886,-3.9864,-3.987,-3.9871,-3.9873,-3.9878,-3.9805,-3.9881,-3.9881,-3.988,-3.988,-3.988,0,-4.033,-4.0302,-4.0285,-4.0248,-4.0233,-4.0197,-4.0165,-4.0155,-4.0142,-4.0112,-4.0093,-4.0072,-4.0052,-4.0008,-3.9984,-3.9983,-3.9963,-3.9978,-3.9975,-3.997,-3.9901,-3.9898,-3.9994,-3.9994,-3.9994,-3.9994,-3.9994,-3.9994,-4.0372,-4.0368,-4.034,-4.0323,-4.0295,-4.0278,-4.0263,-4.0241,-4.0217,-4.0195,-4.0178,-4.015,-4.0115,-4.0089,-4.0069,-4.0057,-4.0049,-4.007,-4.0052,-3.9986,-3.9975,-3.9965,-3.9961,-4.007,-4.007,-4.0121,-4.0122,-4.0122]},{"header":{"parameterUnit":"m.s-1","parameterCategory":1,"la1":30.2991,"la2":30.254,"lo1":-89.0895,"lo2":-89.0444,"dy":0.0017,"dx":0.0017,"nx":28,"ny":28,"refTime":"2023-09-04T09:00:00:Z","depth":0,"parameterNumber":3,"parameterNumberName":"V-component_of_WINDS"},"data":[0,0,0,0,0,0,0,0,0,0,0,0,0,0,0,0,0,0,0,0,0,0,0,0,0,0,0,0,0,0,0,0,0,0,0,0,0,0,0,0,0,0,0,0,0,0,0,0,0,0,0,0,0,0,0,0,0,0,1.8149,1.8151,0,1.8347,1.835,1.8352,1.8392,1.839,1.8389,1.8387,1.8601,1.8608,1.8615,0,0,0,0,0,0,0,0,0,0,0,0,0,1.7816,1.7822,1.8148,1.8151,1.8153,1.8347,1.835,1.8353,1.8392,1.839,1.8388,1.8387,1.8599,1.8607,1.8616,0,0,0,0,0,0,0,0,0,0,0,0,0,1.7982,1.7824,1.8148,1.8196,1.8203,1.8346,1.835,1.8353,1.8393,1.839,1.8388,1.8386,1.8596,1.8606,1.8617,1.873,0,0,1.865,1.8654,0,0,0,0,0,0,0,0,1.7973,1.7995,1.8187,1.8193,1.82,1.8342,1.8311,1.848,1.8393,1.8321,1.8387,1.8385,1.8518,1.8534,1.8577,1.874,1.8749,1.8651,1.8657,1.8662,1.8665,0,0,0,0,0,0,0,1.7961,1.7986,1.8227,1.819,1.8198,1.8212,1.8233,1.8343,1.843,1.8327,1.833,1.8353,1.8521,1.8567,1.8583,1.8752,1.865,1.866,1.8666,1.8671,1.9024,1.9027,0,0,0,0,0,0,1.794,1.7976,1.8221,1.8233,1.8078,1.822,1.8244,1.8299,1.8429,1.8446,1.8355,1.8354,1.855,1.857,1.859,1.8735,1.8662,1.8672,1.8678,1.9021,1.9024,1.9028,0,0,0,0,0,0,1.7932,1.7961,1.8213,1.8106,1.8139,1.8228,1.8291,1.8304,1.835,1.845,1.8467,1.8385,1.8549,1.8575,1.8695,1.8743,1.8676,1.8686,1.9017,1.9022,1.9026,1.9022,0,0,0,0,0,0,1.7923,1.7958,1.7998,1.8106,1.8145,1.8311,1.8293,1.831,1.8367,1.8368,1.8482,1.8499,1.8549,1.8679,1.8706,1.8756,1.8694,1.9014,1.9019,1.9025,1.9018,1.9026,1.9032,0,0,0,0,0,1.7911,1.799,1.8,1.803,1.8196,1.8313,1.8336,1.8388,1.8371,1.8415,1.848,1.8496,1.8733,1.8691,1.8722,1.8776,1.9011,1.9018,1.9024,1.9015,1.9024,1.9032,0,0,0,0,0,0,1.7888,1.8005,1.8018,1.8134,1.8213,1.832,1.8376,1.8395,1.8484,1.8481,1.8546,1.8572,1.8689,1.8745,1.8696,1.8895,1.8872,1.8885,1.8854,1.8864,1.887,1.8855,1.8703,0,0,0,0,0,1.7896,1.7978,1.8077,1.8171,1.821,1.8286,1.8339,1.8373,1.8459,1.8494,1.8567,1.8653,1.8748,1.8809,1.8901,1.9026,1.9055,1.9079,1.9086,1.9091,1.9102,1.9178,1.9192,1.905,1.905,1.9049,0,0,1.7915,1.7989,1.8037,1.8168,1.8233,1.8321,1.8314,1.8406,1.8473,1.8509,1.8626,1.8684,1.8785,1.8909,1.8968,1.8959,1.9148,1.91,1.9103,1.9112,1.9187,1.92,1.9212,1.9054,1.9053,1.9053,0,0,1.7994,1.8056,1.8142,1.8208,1.8307,1.8358,1.8379,1.8484,1.8522,1.8641,1.8671,1.8754,1.8914,1.8986,1.9044,1.9155,1.9175,1.9183,1.9219,1.9293,1.9304,1.9314,1.9358,1.9372,1.9194,1.9194,1.9194,0,1.8006,1.8134,1.8185,1.8277,1.8336,1.837,1.8462,1.8524,1.8649,1.8691,1.8679,1.8883,1.8953,1.9098,1.9125,1.9169,1.9199,1.9171,1.9297,1.9308,1.9319,1.9361,1.9377,1.9194,1.9194,1.9194,1.9194,0,1.8146,1.8236,1.8294,1.8412,1.8478,1.8568,1.8638,1.8699,1.8729,1.8783,1.8907,1.8992,1.9105,1.9141,1.9171,1.9292,1.9284,1.9283,1.9262,1.9332,1.9373,1.939,1.9195,1.9195,1.9195,1.9195,0,0,1.8216,1.8361,1.8382,1.8438,1.8551,1.8623,1.8718,1.8825,1.8879,1.8965,1.905,1.9186,1.9188,1.9253,1.9293,1.9356,1.9444,1.935,1.9353,1.9367,1.9588,1.9589,1.9606,1.9458,1.9461,1.9463,1.9581,0,1.831,1.8476,1.8527,1.8668,1.8755,1.879,1.8874,1.8955,1.9009,1.9094,1.9156,1.9253,1.9245,1.9286,1.935,1.9419,1.949,1.9411,1.9542,1.9546,1.9517,1.9627,1.9628,1.9734,1.9597,1.9599,1.9601,0,1.8442,1.8529,1.8678,1.8783,1.8821,1.8895,1.9,1.9078,1.9174,1.9209,1.9284,1.9318,1.9425,1.9396,1.9546,1.9492,1.9549,1.9592,1.9597,1.9613,1.9579,1.9649,1.9769,1.9786,1.9627,1.9625,1.9623,0,1.8482,1.8636,1.8746,1.8792,1.8917,1.8969,1.9024,1.9116,1.9179,1.9272,1.9315,1.942,1.9478,1.9562,1.9626,1.9598,1.9773,1.9748,1.9809,1.9808,1.9845,1.9843,1.9979,1.9878,1.9877,1.9877,1.9877,0,1.8584,1.8675,1.8766,1.8834,1.8939,1.8999,1.9102,1.916,1.9243,1.9327,1.9365,1.9444,1.9523,1.9614,1.9666,1.9785,1.9811,1.9846,1.9859,1.9844,1.984,1.9884,1.9879,1.9882,1.9881,1.988,1.9879,0,1.8647,1.8711,1.8834,1.8942,1.8971,1.9044,1.914,1.921,1.9266,1.9372,1.9401,1.9491,1.96,1.9672,1.9812,1.9847,1.9979,1.9989,1.9946,1.9953,2.0011,2.0006,2.0182,2.021,2.0087,2.0088,2.0089,0,1.8709,1.8779,1.8895,1.8952,1.9006,1.9098,1.9162,1.9226,1.9292,1.9408,1.9466,1.9577,1.9669,1.9844,1.9925,2.0034,2.0049,2.0103,2.0065,2.0049,2.0054,2.005,2.006,2.0109,2.011,2.0111,2.0112,0,1.8813,1.8842,1.893,1.9031,1.9105,1.9189,1.9273,1.9319,1.9398,1.9471,1.9582,1.9653,1.9797,1.9909,2.0026,2.0089,2.0116,2.0123,2.0144,2.013,2.0103,2.0122,1.9965,2.0119,2.0118,2.0118,2.0117,2.0117,1.888,1.8946,1.9038,1.9137,1.9206,1.9284,1.9356,1.9421,1.9513,1.9633,1.9666,1.9783,1.9882,2.0042,2.0107,2.0203,2.0197,2.0226,2.0234,2.0241,2.0243,2.0086,2.0224,2.0224,2.0224,2.0224,2.0224,0,1.899,1.9051,1.914,1.9256,1.9335,1.9349,1.9444,1.9511,1.9612,1.97,1.979,1.992,2.003,2.012,2.0235,2.0295,2.0311,2.0324,2.0321,2.0336,2.024,2.0212,2.0309,2.0309,2.0309,2.0309,2.0309,2.0309,1.9056,1.9169,1.9209,1.936,1.9422,1.9534,1.9587,1.9662,1.9733,1.9875,1.9965,2.0022,2.0113,2.0235,2.0339,2.0363,2.0406,2.0416,2.0444,2.0352,2.0343,2.0334,2.0308,2.0424,2.0424,2.0533,2.0534,2.0535]}]]